Location: Rio Tanui
(39.9167°N, 8.5167°E)
Time: 01:33:45
(UTC+00:00)

Cosmos 2333 - Pass Details

Date: 08 February 2023
Orbit: 828 x 867 km, 70.9° (Epoch: 01 April)

Event Time Altitude Azimuth Distance (km) Brightness Sun altitude
Rises 17:24:11 0° 202° (SSW) 3,356 7.9 -6.5°
Reaches altitude 10° 17:26:35 10° 203° (SSW) 2,430 7.1 -7.0°
Maximum altitude 17:32:10 87° 293° (WNW) 842 4.3 -8.0°
Drops below altitude 10° 17:37:51 10° 23° (NNE) 2,466 6.3 -9.1°
Sets 17:40:18 0° 24° (NNE) 3,411 7.0 -9.5°
